Wind_Speed
36 39 44 41 41 43 37 38 37 37 39 37 34 31 30 28 24 17 16 13 10 9 9 7 3 3 0 1 4 6 6 7 8 10 11 13 13 15 16 16 17 17 16 15 14 14 14 13 14
40 37 41 47 43 41 35 40 37 42 42 38 37 35 29 31 28 22 20 19 18 15 12 9 3 4 6 3 3 4 4 6 8 8 8 11 13 15 15 15 15 16 16 16 16 16 15 14 15
44 40 38 41 50 42 36 43 42 45 42 40 40 38 35 36 30 24 23 20 20 18 13 10 4 6 6 8 3 1 2 4 6 8 8 10 13 13 12 12 14 14 15 15 16 16 16 15 15
42 43 42 42 43 52 49 46 43 45 43 41 40 41 43 37 32 25 25 22 20 20 16 11 8 9 10 9 7 4 0 3 5 7 8 9 10 12 12 12 13 14 14 13 14 15 15 16 18
44 43 44 44 46 47 46 54 49 46 42 41 42 44 45 43 34 29 27 28 25 19 17 15 12 11 12 11 10 8 4 3 5 6 7 8 8 10 10 11 12 13 15 14 14 14 15 16 18
48 45 45 43 43 47 44 58 52 46 42 42 42 42 46 46 39 34 31 29 30 27 21 15 16 13 13 13 12 11 7 7 6 5 7 7 7 7 9 10 12 13 14 15 14 14 15 16 18
52 49 48 47 45 49 45 48 58 47 44 43 41 41 44 48 45 40 37 32 32 31 26 20 19 15 15 15 17 16 17 12 9 7 7 8 9 9 10 12 13 15 14 13 15 15 17 18 19
56 54 51 51 51 49 46 47 61 48 44 48 42 39 41 43 45 46 42 37 36 35 31 26 24 20 18 18 19 18 21 17 12 10 10 9 10 10 11 13 14 14 13 13 15 16 18 20 22
52 57 56 52 52 47 48 49 48 63 46 48 50 41 38 40 41 45 44 42 42 39 36 33 29 23 23 23 21 20 21 18 14 11 11 10 11 12 13 14 14 13 14 14 15 16 18 21 23
43 56 56 53 48 51 45 45 52 55 51 46 51 49 41 38 41 44 47 45 42 44 42 36 32 30 27 26 24 23 22 20 16 13 12 12 13 14 16 15 14 15 14 15 14 15 17 19 22
34 43 50 53 58 50 47 47 40 51 69 48 54 52 45 42 42 46 48 49 49 53 49 36 32 32 31 29 27 27 24 20 20 17 16 16 17 17 14 14 13 18 17 17 16 17 18 19 21
36 36 43 56 55 56 51 45 46 42 54 58 55 50 48 47 46 48 50 48 48 53 50 38 38 35 33 33 30 29 28 25 23 21 21 20 20 19 15 15 14 18 20 20 18 17 18 20 21
35 39 39 44 48 54 55 50 48 49 51 69 61 55 51 52 53 56 53 49 50 52 51 46 42 41 38 36 35 32 32 28 30 30 26 24 23 23 19 20 18 18 21 19 19 21 22 23 24
36 37 38 42 43 48 55 55 54 52 46 38 70 63 57 57 58 60 59 56 51 53 48 48 46 42 49 39 32 33 34 36 37 36 32 29 26 25 23 23 21 21 21 20 21 23 25 25 27
32 32 35 39 38 41 49 53 54 53 47 39 57 67 63 60 63 64 64 63 59 55 53 53 51 50 47 39 44 43 41 43 35 32 33 33 32 33 30 28 25 26 25 20 23 27 26 28 32
32 32 32 37 36 35 38 41 50 50 49 46 44 71 66 64 65 64 71 64 63 60 55 57 54 50 52 52 58 48 49 47 37 35 34 43 39 37 35 31 35 35 30 26 26 30 25 31 34
33 31 33 37 33 33 33 36 45 43 47 47 42 54 68 67 66 67 63 60 71 65 60 57 55 56 57 68 49 46 48 44 44 40 39 39 39 25 37 36 39 39 35 29 35 31 33 33 35
38 34 36 35 36 33 34 34 35 37 42 42 42 46 55 69 66 67 68 66 54 67 73 61 59 66 53 64 45 47 61 50 47 46 46 37 34 31 31 34 52 37 46 37 38 25 32 37 38
39 38 38 38 39 35 36 35 34 35 37 39 41 43 42 64 66 66 68 68 68 69 67 77 68 69 63 47 55 61 57 52 54 46 36 34 40 24 25 49 37 49 43 38 32 36 36 37 36
34 38 38 41 41 41 39 38 36 35 37 37 38 41 43 44 56 66 69 67 70 69 70 68 65 63 57 60 57 60 57 45 49 46 43 36 39 37 32 38 27 40 41 44 24 33 39 36 37
31 33 37 37 40 39 41 40 41 39 39 40 40 40 43 45 45 48 74 72 68 68 68 69 65 61 63 66 66 65 75 53 52 52 55 41 38 34 38 35 44 51 44 45 37 39 42 42 40
30 35 34 34 34 33 37 34 38 36 39 41 43 45 47 49 48 48 49 63 72 73 66 68 70 70 68 68 68 67 62 56 55 55 53 50 39 37 46 48 48 49 48 41 42 41 42 40 42
30 32 33 32 33 33 32 34 33 32 36 39 41 43 45 49 51 52 51 52 52 80 76 74 70 70 67 66 67 68 65 60 59 63 49 52 47 45 44 46 51 51 48 42 43 42 43 41 39
33 33 32 31 31 31 30 32 21 31 30 35 39 41 43 45 48 51 54 55 56 57 60 62 79 75 74 70 64 62 61 60 61 61 61 56 49 52 56 56 57 51 45 43 47 46 40 39 38
32 32 27 24 27 19 33 29 27 30 30 34 37 40 41 42 44 47 51 55 56 58 61 61 61 67 79 81 76 70 68 68 66 63 60 60 61 64 60 58 49 49 43 50 44 44 38 37 40
29 32 27 26 17 17 34 31 33 24 29 35 39 41 43 45 46 47 49 51 53 59 61 63 65 66 68 70 71 70 72 77 76 73 71 69 67 62 60 51 50 48 50 43 45 41 39 37 38
27 30 32 34 31 33 30 28 24 28 28 33 35 39 44 48 51 54 55 55 56 58 59 62 65 68 69 71 71 70 67 65 64 67 65 69 73 71 64 52 55 44 42 44 45 43 38 37 37
27 31 32 30 31 28 24 22 19 27 25 31 35 41 41 42 45 51 57 61 63 63 64 65 65 65 69 71 71 70 68 67 64 62 58 57 61 62 60 48 48 45 43 44 42 42 37 37 39
31 34 34 29 27 25 23 16 24 24 30 32 34 37 39 40 37 41 45 57 67 69 71 71 71 70 68 67 70 72 70 66 64 62 58 53 53 54 50 45 47 45 42 39 43 40 38 37 39
29 29 28 26 25 25 27 23 27 23 27 29 32 35 38 41 45 47 45 46 50 62 71 77 76 76 76 73 69 67 69 69 65 60 56 55 53 50 47 44 44 42 38 37 40 40 41 40 38
Wind_Direction
233 230 227 221 220 219 214 221 222 225 225 220 228 223 214 215 208 203 200 189 179 173 161 142 162 175 194 54 42 26 29 46 52 47 46 37 33 33 33 26 25 18 16 16 15 7 4 360 351
237 235 231 224 219 220 215 218 221 225 226 222 224 221 222 209 213 205 195 195 187 186 186 150 204 235 246 277 360 37 45 43 33 27 21 17 16 17 21 20 20 19 16 12 11 2 358 356 348
237 235 235 231 219 221 215 211 219 226 226 225 223 220 223 228 223 213 199 206 203 189 179 179 215 261 266 260 299 67 34 21 18 15 10 16 14 18 23 24 23 14 9 10 13 6 357 352 346
238 237 239 235 233 218 212 211 220 224 224 225 224 219 216 224 229 217 213 209 213 215 183 188 227 251 259 274 261 247 317 9 354 351 348 354 2 1 4 9 3 3 9 4 7 6 360 360 354
235 236 239 237 240 230 215 212 218 222 223 224 223 221 222 219 226 226 216 217 221 216 197 202 228 248 257 267 266 249 259 292 331 331 329 337 345 346 345 348 354 2 0 5 6 8 7 11 4
232 233 236 238 240 239 227 213 223 224 227 224 222 221 220 220 222 228 222 223 231 229 210 206 227 237 262 262 259 247 254 275 293 308 317 321 331 332 333 337 339 345 353 356 8 6 11 10 6
231 231 233 234 234 237 236 223 221 228 228 229 222 221 220 218 216 221 226 225 227 232 215 208 224 232 254 269 264 256 259 274 271 277 292 306 316 319 325 331 332 336 342 354 1 5 7 8 7
231 235 233 232 230 240 241 234 215 224 232 235 224 221 223 217 217 216 220 223 226 233 226 216 224 231 243 257 256 257 256 256 257 270 280 292 297 306 313 326 330 330 339 346 350 358 0 356 357
233 234 235 234 234 238 239 244 235 222 226 235 234 220 221 219 214 215 220 223 226 227 233 232 227 229 237 246 243 250 252 246 247 255 269 281 289 297 304 315 327 328 333 335 341 347 350 349 349
239 239 238 239 243 238 245 243 240 230 221 229 232 226 215 212 211 212 216 215 219 229 235 233 230 230 227 236 244 245 244 248 252 252 262 269 273 284 291 305 314 322 324 322 331 337 341 339 341
245 246 242 242 243 245 246 246 250 234 224 222 227 222 211 208 207 209 214 217 219 231 235 226 216 211 222 233 235 239 243 246 251 248 252 263 271 272 275 284 300 308 308 307 317 326 330 330 331
243 243 242 243 243 243 246 248 250 244 231 217 220 214 209 207 203 207 213 219 215 226 226 211 211 212 218 227 223 224 234 239 245 244 249 255 254 258 259 266 282 290 293 298 305 315 320 317 317
251 247 240 244 244 244 243 247 251 250 239 221 215 213 205 205 204 205 211 216 214 211 224 226 206 208 218 215 227 228 227 232 236 233 236 242 245 247 252 264 273 280 285 293 304 307 308 311 316
251 253 250 245 245 243 243 246 249 252 240 237 218 211 203 204 207 207 208 214 217 215 213 220 213 215 214 200 210 219 217 222 242 224 222 232 238 243 245 258 268 271 278 289 295 299 303 311 312
252 251 253 250 246 246 244 245 249 252 251 257 228 216 207 204 208 212 208 212 217 224 211 211 215 229 223 213 225 212 215 220 227 242 232 230 231 232 240 249 260 262 266 279 289 290 300 308 306
251 250 252 250 249 246 245 245 246 249 252 249 243 211 212 207 211 209 213 215 215 217 225 217 213 228 239 228 218 216 225 225 232 226 240 248 234 231 239 246 257 260 256 267 278 284 297 295 303
250 252 248 257 250 248 244 243 249 244 247 249 252 227 211 208 210 216 222 215 211 218 220 227 222 220 234 231 225 228 229 230 233 241 240 248 250 257 242 256 273 264 266 270 304 283 291 298 306
251 245 251 251 251 249 245 244 245 242 240 242 246 249 228 214 212 215 220 226 230 214 217 220 229 234 232 230 234 243 234 252 237 236 242 243 246 261 272 285 290 272 298 303 302 285 308 294 306
251 252 252 253 254 250 250 244 241 243 239 237 235 241 247 224 214 217 219 223 224 225 227 225 219 228 237 231 249 233 241 234 248 235 239 262 255 255 279 291 300 297 297 289 288 308 300 301 307
252 252 252 251 251 253 253 252 248 244 243 243 236 235 236 241 230 223 220 221 227 230 227 237 229 227 232 237 248 243 231 241 255 226 257 257 260 270 258 264 276 293 291 269 299 299 299 305 310
252 250 252 251 252 252 252 254 252 249 247 247 246 240 238 237 234 235 225 225 222 225 230 233 236 236 237 236 242 245 245 251 257 258 264 274 259 271 265 263 287 286 290 289 297 296 300 305 304
254 251 252 254 254 251 250 247 251 252 252 248 245 242 241 240 239 237 238 232 227 225 226 229 230 233 235 240 240 245 250 250 255 257 253 262 242 260 270 273 276 280 285 284 284 292 300 305 300
251 254 253 253 254 255 256 256 251 246 248 249 250 246 243 242 243 241 240 238 241 230 227 231 230 230 232 236 242 249 251 251 252 256 256 252 261 262 264 267 275 281 278 277 282 290 296 305 297
252 253 254 255 256 256 253 256 259 252 245 245 247 251 250 245 243 244 244 242 239 238 239 243 232 232 231 233 236 242 245 248 251 253 256 256 258 264 266 269 278 277 262 279 278 283 296 298 290
250 253 255 260 259 253 253 249 246 261 256 253 251 250 249 252 252 247 243 245 245 242 242 241 239 240 238 237 238 237 241 244 246 247 249 252 256 259 264 271 271 264 272 272 280 285 295 289 288
251 246 246 250 242 239 253 254 258 262 261 261 260 258 256 254 252 253 253 252 246 245 244 242 243 242 240 241 242 244 246 244 244 247 251 253 258 262 268 261 260 260 265 273 280 288 292 280 281
254 255 246 248 252 252 251 261 259 263 265 262 261 262 264 264 262 260 256 252 253 253 249 247 244 242 242 243 243 244 244 245 246 247 251 254 255 260 263 262 264 263 261 271 280 284 280 279 283
249 249 251 247 249 255 256 254 266 260 263 275 273 271 268 269 268 266 262 257 252 248 248 250 247 244 244 243 245 246 245 246 246 247 249 249 250 252 256 254 260 258 263 270 273 276 275 277 278
257 253 246 240 249 253 255 251 256 266 266 278 286 283 285 282 276 277 277 269 261 256 251 246 245 246 245 244 243 243 245 245 245 245 246 246 244 250 250 253 256 254 257 263 268 273 271 273 276
240 239 244 242 251 250 253 251 265 269 275 281 287 289 287 281 278 278 281 283 276 261 256 251 247 244 243 242 241 240 241 242 243 245 245 244 242 245 248 252 253 257 260 262 270 271 270 271 274
Height
5848 5852 5856 5859 5867 5868 5874 5877 5877 5880 5880 5882 5883 5887 5891 5894 5896 5904 5901 5903 5905 5905 5905 5906 5906 5906 5906 5906 5906 5905 5905 5904 5903 5903 5902 5901 5900 5899 5898 5898 5897 5898 5897 5896 5894 5893 5891 5890 5889
5842 5846 5849 5852 5857 5863 5871 5870 5872 5871 5871 5877 5880 5885 5889 5889 5891 5894 5896 5899 5899 5901 5904 5904 5906 5906 5905 5905 5905 5904 5903 5903 5903 5902 5902 5901 5900 5899 5898 5898 5897 5896 5896 5895 5893 5893 5891 5890 5888
5835 5838 5843 5843 5848 5855 5861 5861 5862 5862 5867 5869 5874 5879 5883 5884 5887 5891 5895 5897 5898 5897 5900 5902 5904 5904 5904 5903 5903 5902 5902 5902 5903 5902 5902 5901 5901 5900 5899 5898 5898 5897 5896 5894 5893 5891 5889 5888 5887
5828 5832 5835 5837 5838 5838 5848 5851 5851 5855 5859 5862 5866 5874 5876 5879 5886 5889 5891 5894 5895 5896 5897 5899 5901 5902 5902 5902 5902 5902 5901 5901 5902 5902 5902 5901 5901 5901 5900 5899 5898 5898 5896 5895 5892 5890 5889 5886 5885
5820 5824 5826 5829 5830 5835 5843 5845 5844 5845 5852 5856 5859 5862 5869 5873 5880 5885 5887 5891 5892 5894 5893 5895 5898 5899 5900 5901 5901 5901 5900 5900 5901 5901 5901 5900 5900 5900 5900 5899 5898 5897 5896 5895 5893 5890 5888 5885 5883
5812 5816 5818 5822 5825 5827 5835 5839 5841 5843 5845 5849 5852 5856 5860 5868 5875 5881 5883 5886 5888 5890 5890 5891 5894 5896 5898 5898 5899 5899 5899 5899 5900 5900 5900 5899 5899 5899 5899 5898 5897 5897 5894 5893 5891 5889 5886 5884 5882
5803 5807 5810 5815 5820 5820 5827 5830 5835 5839 5839 5841 5845 5850 5854 5860 5869 5874 5879 5881 5884 5886 5887 5887 5890 5893 5895 5896 5896 5896 5897 5898 5898 5898 5897 5898 5898 5897 5896 5896 5895 5895 5893 5891 5890 5888 5886 5883 5881
5795 5798 5803 5806 5812 5814 5817 5823 5826 5830 5833 5833 5840 5842 5846 5855 5863 5869 5873 5877 5879 5881 5882 5883 5886 5889 5890 5891 5892 5893 5894 5895 5895 5896 5895 5895 5896 5895 5894 5893 5893 5892 5891 5889 5889 5887 5884 5882 5881
5789 5788 5793 5800 5804 5809 5811 5813 5816 5820 5827 5829 5833 5836 5842 5848 5855 5862 5867 5871 5873 5875 5877 5879 5882 5884 5886 5887 5888 5889 5891 5891 5892 5892 5893 5893 5893 5892 5892 5890 5889 5889 5888 5888 5887 5885 5883 5881 5878
5779 5782 5788 5795 5798 5799 5804 5806 5807 5813 5818 5824 5826 5830 5834 5841 5849 5854 5859 5863 5867 5869 5871 5873 5877 5879 5881 5882 5884 5886 5887 5888 5889 5889 5890 5890 5890 5889 5889 5888 5887 5886 5885 5885 5883 5883 5881 5880 5877
5774 5775 5783 5786 5786 5792 5795 5797 5801 5807 5811 5815 5816 5819 5826 5833 5839 5846 5850 5855 5858 5861 5863 5866 5870 5872 5875 5877 5879 5881 5883 5884 5885 5885 5887 5887 5887 5886 5885 5885 5883 5883 5882 5882 5880 5879 5879 5879 5875
5766 5769 5771 5772 5778 5782 5787 5791 5791 5795 5801 5799 5807 5813 5817 5824 5831 5836 5842 5846 5850 5853 5857 5860 5864 5866 5869 5871 5873 5876 5878 5879 5881 5881 5882 5882 5882 5882 5882 5882 5879 5878 5878 5878 5878 5875 5874 5873 5872
5758 5759 5763 5765 5767 5773 5776 5780 5779 5781 5785 5788 5796 5803 5807 5813 5821 5825 5831 5837 5841 5843 5849 5854 5856 5858 5862 5864 5867 5869 5872 5874 5874 5874 5875 5876 5877 5878 5878 5878 5877 5875 5875 5875 5874 5873 5871 5869 5867
5749 5752 5755 5756 5759 5760 5765 5768 5767 5773 5777 5785 5788 5791 5797 5803 5808 5814 5819 5827 5833 5836 5839 5844 5849 5850 5851 5853 5859 5862 5864 5865 5866 5867 5868 5870 5872 5873 5874 5875 5874 5872 5871 5871 5869 5868 5867 5866 5863
5743 5745 5746 5749 5750 5751 5753 5757 5760 5762 5769 5774 5777 5783 5787 5793 5799 5804 5806 5814 5821 5826 5827 5834 5838 5844 5848 5846 5852 5851 5853 5857 5859 5862 5862 5864 5864 5867 5867 5869 5869 5868 5867 5866 5866 5863 5862 5861 5859
5737 5739 5739 5739 5743 5744 5746 5750 5748 5755 5759 5765 5765 5770 5779 5784 5790 5792 5799 5804 5811 5817 5823 5819 5827 5836 5840 5842 5841 5843 5844 5850 5852 5855 5856 5856 5857 5859 5861 5863 5862 5863 5861 5862 5861 5859 5857 5856 5853
5730 5732 5732 5730 5736 5736 5738 5739 5739 5747 5749 5753 5757 5764 5768 5774 5780 5784 5788 5791 5795 5807 5813 5815 5815 5822 5827 5828 5831 5835 5838 5842 5847 5846 5847 5851 5854 5853 5854 5856 5858 5857 5858 5859 5858 5857 5855 5852 5848
5720 5724 5724 5725 5727 5730 5731 5732 5734 5736 5740 5744 5749 5753 5760 5764 5771 5775 5781 5784 5786 5791 5798 5807 5812 5814 5812 5818 5823 5828 5833 5837 5838 5840 5844 5845 5845 5846 5850 5852 5846 5849 5855 5854 5852 5850 5850 5848 5843
5713 5715 5717 5717 5718 5722 5724 5725 5727 5728 5732 5737 5742 5743 5748 5754 5758 5767 5771 5776 5780 5786 5790 5792 5794 5801 5806 5804 5812 5818 5824 5825 5832 5835 5836 5838 5839 5842 5843 5843 5841 5845 5848 5846 5843 5844 5844 5841 5836
5704 5706 5707 5708 5710 5712 5714 5717 5720 5722 5724 5728 5732 5735 5738 5743 5746 5752 5759 5761 5767 5772 5779 5780 5785 5792 5797 5802 5804 5806 5812 5818 5821 5823 5827 5834 5832 5833 5838 5839 5838 5844 5840 5836 5834 5839 5839 5835 5830
5695 5696 5696 5700 5701 5704 5706 5709 5709 5713 5714 5717 5721 5725 5727 5730 5736 5739 5743 5749 5754 5760 5767 5773 5777 5781 5788 5793 5797 5801 5805 5810 5811 5816 5820 5824 5823 5825 5829 5829 5834 5836 5833 5830 5830 5833 5831 5827 5825
5688 5686 5688 5690 5692 5695 5697 5701 5700 5702 5703 5706 5709 5712 5714 5717 5723 5727 5732 5735 5738 5746 5754 5760 5768 5773 5777 5781 5786 5791 5794 5800 5805 5808 5811 5813 5812 5821 5821 5825 5828 5828 5827 5826 5827 5825 5824 5821 5817
5679 5679 5680 5682 5684 5685 5688 5690 5691 5694 5693 5693 5694 5699 5704 5708 5712 5718 5723 5728 5731 5737 5742 5746 5753 5758 5764 5769 5773 5777 5782 5788 5795 5795 5789 5803 5807 5813 5817 5817 5821 5821 5820 5819 5819 5819 5818 5815 5813
5669 5671 5673 5675 5676 5679 5679 5680 5684 5681 5685 5686 5687 5689 5694 5701 5705 5708 5712 5717 5722 5727 5732 5734 5739 5744 5749 5754 5761 5766 5771 5776 5781 5786 5792 5796 5799 5804 5807 5809 5813 5812 5809 5810 5811 5811 5810 5808 5807
5661 5664 5667 5670 5670 5674 5670 5673 5675 5672 5673 5676 5679 5683 5687 5690 5693 5698 5701 5703 5707 5712 5716 5721 5726 5730 5733 5738 5746 5752 5759 5765 5770 5776 5780 5785 5789 5793 5799 5801 5802 5801 5801 5803 5803 5804 5801 5801 5799
5655 5655 5658 5659 5665 5667 5662 5665 5662 5665 5665 5666 5669 5672 5677 5680 5683 5684 5686 5689 5694 5697 5701 5706 5710 5716 5719 5725 5731 5737 5744 5751 5758 5765 5770 5775 5778 5782 5787 5790 5792 5792 5793 5795 5794 5793 5794 5793 5791
5650 5649 5649 5649 5653 5654 5657 5657 5658 5657 5655 5654 5657 5661 5664 5667 5669 5671 5674 5677 5679 5681 5685 5689 5695 5701 5705 5709 5716 5723 5731 5738 5744 5751 5757 5761 5768 5772 5775 5779 5780 5782 5783 5784 5785 5785 5787 5784 5784
5640 5641 5642 5642 5645 5647 5650 5651 5651 5649 5648 5642 5644 5646 5650 5652 5653 5654 5656 5658 5662 5667 5669 5672 5678 5683 5688 5695 5701 5708 5715 5723 5731 5738 5745 5750 5755 5760 5765 5768 5770 5773 5774 5775 5776 5777 5777 5777 5776
5632 5631 5632 5634 5637 5638 5641 5647 5641 5641 5639 5637 5635 5636 5636 5636 5637 5637 5637 5639 5643 5646 5649 5655 5661 5667 5672 5678 5686 5693 5701 5709 5716 5724 5733 5739 5745 5748 5754 5756 5760 5761 5763 5766 5766 5768 5768 5769 5768
5621 5624 5625 5627 5631 5632 5631 5636 5633 5631 5631 5630 5627 5625 5624 5624 5623 5620 5619 5618 5618 5621 5625 5630 5637 5645 5652 5660 5668 5677 5686 5694 5703 5712 5719 5725 5732 5737 5741 5746 5748 5751 5755 5757 5758 5759 5759 5759 5760